Regional Weather Roundup
Issued by NWS Little Rock, AR

Home | Current Version | Previous Version | Text Only | Print | Product List | Glossary On
Versions: 1 2 3 4 5 6 7 8 9 10 11 12 13 14 15 16 17 18 19 20 21 22 23 24 25 26 27 28 29 30 31 32 33 34 35 36 37 38 39 40 41 42 43 44 45 46 47 48 49 50
000
ASUS44 KLZK 140105
RWRLZK

WEATHER ROUNDUP FOR ARKANSAS
NATIONAL WEATHER SERVICE LITTLE ROCK AR
700 PM CST WED DEC 13 2017

NOTE: "FAIR" INDICATES FEW OR NO CLOUDS BELOW 12,000 FEET WITH NO
SIGNIFICANT WEATHER AND/OR OBSTRUCTIONS TO VISIBILITY.

ARZ001-003-010-029-140200-
NORTHWEST ARKANSAS

CITY           SKY/WX    TMP DP  RH WIND       PRES   REMARKS
FAYETTEVILLE   CLEAR     40  27  59 CALM      29.86S
FORT SMITH     CLEAR     48  28  46 SW6       29.87R
HARRISON       CLEAR     50  25  37 W7        29.83R
BENTONVILLE    CLEAR     47  26  44 W6        29.87R
ROGERS         CLEAR     48  27  44 SW8       29.86R
SILOAM SPGS    CLEAR     48  26  42 W6        29.87R
SPRINGDALE     CLEAR     50  25  37 SW6       29.87R
$$

ARZ004-005-016-140200-
NORTH CENTRAL ARKANSAS

CITY           SKY/WX    TMP DP  RH WIND       PRES   REMARKS
BATESVILLE     CLEAR     48  26  42 SW6       29.82R
MTN HOME       CLEAR     52  26  36 CALM      29.80R
$$

ARZ040-041-140200-
WEST CENTRAL ARKANSAS

CITY           SKY/WX    TMP DP  RH WIND       PRES   REMARKS
MENA           CLEAR     54  27  35 SW6       29.87S
MOUNT IDA      CLEAR     52  28  39 CALM      29.83S
$$

ARZ009-017-025-026-028-140200-
NORTHEAST ARKANSAS

CITY           SKY/WX    TMP DP  RH WIND       PRES   REMARKS
JONESBORO      CLEAR     51  29  42 W7        29.80R
NEWPORT        CLEAR     50  27  40 W6        29.81R
WALNUT RIDGE   CLEAR     51  26  37 SW9       29.79R
BLYTHEVILLE    CLEAR     47  30  51 SW10      29.78R
$$

ARZ022-023-033-042-044-140200-
CENTRAL ARKANSAS

CITY           SKY/WX    TMP DP  RH WIND       PRES   REMARKS
LITTLE ROCK    CLEAR     56  26  31 SW3       29.83S
N LITTLE ROCK    N/A     56  29  35 CALM      29.87R
JACKSONVILLE   CLEAR     53  27  36 NW5       29.83R
SEARCY         CLEAR     53  27  36 W7        29.84R
HOT SPRINGS    CLEAR     57  29  34 NW3       29.85S
RUSSELLVILLE   CLEAR     44  29  55 CALM      29.85R
CLINTON        FAIR      39  28  65 NW5       29.84R
$$

ARZ036-140200-
EAST ARKANSAS

CITY           SKY/WX    TMP DP  RH WIND       PRES   REMARKS
WEST MEMPHIS   CLEAR     51  27  39 S7        29.80R
$$

ARZ050-053-066-070-073-140200-
SOUTHWEST ARKANSAS

CITY           SKY/WX    TMP DP  RH WIND       PRES   REMARKS
ARKADELPHIA    FAIR      42  27  55 CALM      29.87R
CAMDEN         PTCLDY    54  25  32 S5        29.88S
TEXARKANA      CLEAR     55  29  36 SW9       29.88R
EL DORADO      CLEAR     51  30  44 S7        29.90R
DE QUEEN       CLEAR     45  32  60 CALM      29.85R
$$

ARZ056-057-069-140200-
SOUTHEAST ARKANSAS

CITY           SKY/WX    TMP DP  RH WIND       PRES   REMARKS
PINE BLUFF     CLEAR     54  27  35 SW8       29.85R
STUTTGART      CLEAR     47  30  51 SW10      29.83R
MONTICELLO     CLEAR     55  26  32 SW7       29.88R

$$





USA.gov is the U.S. government's official web portal to all federal, state and local government web resources and services.